Time,TemperatureF,DewpointF,PressureIn,WindDirection,WindDirectionDegrees,WindSpeedMPH,WindSpeedGustMPH,Humidity,HourlyPrecipIn,Conditions,Clouds,dailyrainin,SoftwareType,DateUTC
2013-04-30 00:00:00,63.0,57.7,29.98,WSW,248,0.0,8.0,83,0.00,,,-99.99,Weather View 32 v60,2013-04-30 05:00:00,
2013-04-30 00:30:00,63.0,58.1,29.97,SW,225,0.0,8.0,84,0.00,,,-99.99,Weather View 32 v60,2013-04-30 05:30:00,
2013-04-30 01:00:00,63.0,58.4,29.96,WSW,248,0.0,8.0,85,0.00,,,-99.99,Weather View 32 v60,2013-04-30 06:00:00,
2013-04-30 01:30:00,63.0,58.7,29.95,WSW,248,0.0,6.0,86,0.00,,,-99.99,Weather View 32 v60,2013-04-30 06:30:00,
2013-04-30 02:00:00,63.0,59.1,29.95,West,270,3.0,10.0,87,0.00,,,-99.99,Weather View 32 v60,2013-04-30 07:00:00,
2013-04-30 02:30:00,63.0,59.1,29.95,SW,225,0.0,11.0,87,0.00,,,-99.99,Weather View 32 v60,2013-04-30 07:30:00,
2013-04-30 03:00:00,63.0,59.1,29.95,SSW,202,0.0,11.0,87,0.00,,,-99.99,Weather View 32 v60,2013-04-30 08:00:00,
2013-04-30 03:30:00,64.0,59.4,30.00,NW,315,13.0,26.0,85,0.00,,,-99.99,Weather View 32 v60,2013-04-30 08:30:00,
2013-04-30 04:00:00,61.0,58.0,29.99,SW,225,0.0,26.0,90,0.00,,,-99.99,Weather View 32 v60,2013-04-30 09:00:00,
2013-04-30 04:30:00,61.0,59.3,29.97,West,270,1.0,25.0,94,0.01,,,-99.99,Weather View 32 v60,2013-04-30 09:30:00,
2013-04-30 05:00:00,61.0,59.6,29.99,SW,225,1.0,23.0,95,0.02,,,-99.99,Weather View 32 v60,2013-04-30 10:00:00,
2013-04-30 05:30:00,62.0,61.1,29.97,WSW,248,16.0,21.0,97,0.02,,,-99.99,Weather View 32 v60,2013-04-30 10:30:00,
2013-04-30 06:00:00,63.0,59.7,29.96,West,270,16.0,24.0,89,0.01,,,-99.99,Weather View 32 v60,2013-04-30 11:00:00,
2013-04-30 06:30:00,64.0,57.7,29.94,WSW,248,5.0,28.0,80,0.00,,,-99.99,Weather View 32 v60,2013-04-30 11:30:00,
2013-04-30 07:00:00,66.0,58.2,29.95,West,270,0.0,28.0,76,0.01,,,-99.99,Weather View 32 v60,2013-04-30 12:00:00,
2013-04-30 07:30:00,65.0,58.0,29.96,West,270,0.0,12.0,78,0.01,,,-99.99,Weather View 32 v60,2013-04-30 12:30:00,
2013-04-30 08:00:00,64.0,59.4,29.96,WSW,248,10.0,17.0,85,0.00,,,-99.99,Weather View 32 v60,2013-04-30 13:00:00,
2013-04-30 08:30:00,64.0,60.0,29.94,West,270,0.0,17.0,87,0.00,,,-99.99,Weather View 32 v60,2013-04-30 13:30:00,
2013-04-30 09:00:00,65.0,61.0,29.94,WSW,248,3.0,18.0,87,0.00,,,-99.99,Weather View 32 v60,2013-04-30 14:00:00,
2013-04-30 09:30:00,67.0,62.3,29.95,West,270,0.0,18.0,85,0.00,,,-99.99,Weather View 32 v60,2013-04-30 14:30:00,
2013-04-30 10:00:00,68.0,61.9,29.95,WSW,248,0.0,19.0,81,0.00,,,-99.99,Weather View 32 v60,2013-04-30 15:00:00,
2013-04-30 10:30:00,73.0,62.2,29.95,West,270,0.0,23.0,69,0.00,,,-99.99,Weather View 32 v60,2013-04-30 15:30:00,
2013-04-30 11:00:00,76.0,60.1,29.94,WNW,292,5.0,23.0,58,0.01,,,-99.99,Weather View 32 v60,2013-04-30 16:00:00,
2013-04-30 11:30:00,79.0,59.3,29.93,West,270,0.0,22.0,51,0.01,,,-99.99,Weather View 32 v60,2013-04-30 16:30:00,
2013-04-30 12:00:00,80.0,58.5,29.93,WNW,292,11.0,26.0,48,0.00,,,-99.99,Weather View 32 v60,2013-04-30 17:00:00,
2013-04-30 12:30:00,81.0,57.0,29.93,West,270,13.0,29.0,44,0.00,,,-99.99,Weather View 32 v60,2013-04-30 17:30:00,
2013-04-30 13:00:00,83.0,56.1,29.93,NW,315,19.0,29.0,40,0.00,,,-99.99,Weather View 32 v60,2013-04-30 18:00:00,
2013-04-30 13:30:00,83.0,56.1,29.94,NNW,338,17.0,32.0,40,0.00,,,-99.99,Weather View 32 v60,2013-04-30 18:30:00,
2013-04-30 14:00:00,84.0,54.8,29.94,NW,315,16.0,33.0,37,0.00,,,-99.99,Weather View 32 v60,2013-04-30 19:00:00,
2013-04-30 14:30:00,85.0,54.2,29.95,WNW,292,14.0,33.0,35,0.00,,,-99.99,Weather View 32 v60,2013-04-30 19:30:00,
2013-04-30 15:00:00,86.0,54.3,29.94,SW,225,14.0,32.0,34,0.00,,,-99.99,Weather View 32 v60,2013-04-30 20:00:00,
2013-04-30 15:30:00,86.0,54.3,29.95,NNW,338,15.0,31.0,34,0.00,,,-99.99,Weather View 32 v60,2013-04-30 20:30:00,
2013-04-30 16:00:00,86.0,54.3,29.95,NNW,338,6.0,28.0,34,0.00,,,-99.99,Weather View 32 v60,2013-04-30 21:00:00,
2013-04-30 16:30:00,86.0,55.1,29.96,NW,315,0.0,27.0,35,0.00,,,-99.99,Weather View 32 v60,2013-04-30 21:30:00,
2013-04-30 17:00:00,86.0,54.3,29.97,NW,315,0.0,27.0,34,0.00,,,-99.99,Weather View 32 v60,2013-04-30 22:00:00,
2013-04-30 17:30:00,86.0,55.1,29.97,NW,315,0.0,21.0,35,0.00,,,-99.99,Weather View 32 v60,2013-04-30 22:30:00,
2013-04-30 18:00:00,85.0,55.7,29.98,WNW,292,0.0,19.0,37,0.00,,,-99.99,Weather View 32 v60,2013-04-30 23:00:00,
2013-04-30 18:30:00,84.0,52.5,29.99,West,270,0.0,15.0,34,0.00,,,-99.99,Weather View 32 v60,2013-04-30 23:30:00,
2013-04-30 19:00:00,83.0,53.2,30.00,West,270,0.0,13.0,36,0.00,,,-99.99,Weather View 32 v60,2013-05-01 00:00:00,
2013-04-30 19:30:00,81.0,52.9,30.02,WSW,248,0.0,13.0,38,0.00,,,-99.99,Weather View 32 v60,2013-05-01 00:30:00,
2013-04-30 20:00:00,80.0,52.7,30.02,WSW,248,0.0,11.0,39,0.00,,,-99.99,Weather View 32 v60,2013-05-01 01:00:00,
2013-04-30 20:30:00,79.0,53.2,30.04,NW,315,0.0,9.0,41,0.00,,,-99.99,Weather View 32 v60,2013-05-01 01:30:00,
2013-04-30 21:00:00,77.0,53.3,30.05,West,270,0.0,5.0,44,0.00,,,-99.99,Weather View 32 v60,2013-05-01 02:00:00,
2013-04-30 21:30:00,77.0,54.0,30.06,SW,225,0.0,5.0,45,0.00,,,-99.99,Weather View 32 v60,2013-05-01 02:30:00,
2013-04-30 22:00:00,75.0,52.8,30.08,West,270,0.0,5.0,46,0.00,,,-99.99,Weather View 32 v60,2013-05-01 03:00:00,
2013-04-30 22:30:00,74.0,52.4,30.09,WSW,248,0.0,3.0,47,0.00,,,-99.99,Weather View 32 v60,2013-05-01 03:30:00,
2013-04-30 23:00:00,73.0,53.2,30.11,NE,45,0.0,19.0,50,0.00,,,-99.99,Weather View 32 v60,2013-05-01 04:00:00,
2013-04-30 23:30:00,69.0,50.6,30.14,NNE,22,0.0,19.0,52,0.00,,,-99.99,Weather View 32 v60,2013-05-01 04:30:00,